Time,TemperatureF,DewpointF,PressureIn,WindDirection,WindDirectionDegrees,WindSpeedMPH,WindSpeedGustMPH,Humidity,HourlyPrecipIn,Conditions,Clouds,dailyrainin,SolarRadiationWatts/m^2,SoftwareType,DateUTC
2013-05-06 00:04:00,47.4,44.0,30.27,SE,140,1.0,8.0,87,0.00,,,0.00,0,weatherlink.com 1.10,2013-05-06 04:04:00,
2013-05-06 00:19:00,47.1,44.0,30.27,SE,140,0.0,3.0,88,0.00,,,0.00,0,weatherlink.com 1.10,2013-05-06 04:19:00,
2013-05-06 00:34:00,46.8,44.0,30.26,SE,140,0.0,0.0,88,0.00,,,0.00,0,weatherlink.com 1.10,2013-05-06 04:34:00,
2013-05-06 00:49:00,46.4,43.0,30.26,SE,140,0.0,0.0,88,0.00,,,0.00,0,weatherlink.com 1.10,2013-05-06 04:49:00,
2013-05-06 01:04:00,45.9,43.0,30.26,SE,140,0.0,0.0,88,0.00,,,0.00,0,weatherlink.com 1.10,2013-05-06 05:04:00,
2013-05-06 01:19:00,45.6,43.0,30.25,SE,140,0.0,0.0,89,0.00,,,0.00,0,weatherlink.com 1.10,2013-05-06 05:19:00,
2013-05-06 01:34:00,45.5,43.0,30.25,SE,140,0.0,0.0,90,0.00,,,0.00,0,weatherlink.com 1.10,2013-05-06 05:34:00,
2013-05-06 01:49:00,45.1,42.0,30.25,SE,140,0.0,0.0,90,0.00,,,0.00,0,weatherlink.com 1.10,2013-05-06 05:49:00,
2013-05-06 02:04:00,44.8,42.0,30.25,SE,140,0.0,0.0,90,0.00,,,0.00,0,weatherlink.com 1.10,2013-05-06 06:04:00,
2013-05-06 02:19:00,44.6,42.0,30.25,SE,140,0.0,0.0,91,0.00,,,0.00,0,weatherlink.com 1.10,2013-05-06 06:19:00,
2013-05-06 02:34:00,44.8,42.0,30.25,SE,140,0.0,0.0,91,0.00,,,0.00,0,weatherlink.com 1.10,2013-05-06 06:34:00,
2013-05-06 02:49:00,46.0,44.0,30.25,SE,140,1.0,4.0,92,0.00,,,0.00,0,weatherlink.com 1.10,2013-05-06 06:49:00,
2013-05-06 03:04:00,46.4,44.0,30.25,SE,140,0.0,5.0,92,0.00,,,0.00,0,weatherlink.com 1.10,2013-05-06 07:04:00,
2013-05-06 03:19:00,46.3,44.0,30.25,SE,140,0.0,3.0,91,0.00,,,0.00,0,weatherlink.com 1.10,2013-05-06 07:19:00,
2013-05-06 03:34:00,46.3,44.0,30.25,SE,140,0.0,0.0,91,0.00,,,0.00,0,weatherlink.com 1.10,2013-05-06 07:34:00,
2013-05-06 03:49:00,46.4,44.0,30.25,SE,140,0.0,0.0,91,0.00,,,0.00,0,weatherlink.com 1.10,2013-05-06 07:49:00,
2013-05-06 04:05:00,46.6,44.0,30.25,SE,140,0.0,5.0,91,0.00,,,0.00,0,weatherlink.com 1.10,2013-05-06 08:05:00,
2013-05-06 04:20:00,46.5,44.0,30.24,SE,140,0.0,5.0,91,0.00,,,0.00,0,weatherlink.com 1.10,2013-05-06 08:20:00,
2013-05-06 04:35:00,46.1,44.0,30.24,SE,140,0.0,0.0,91,0.00,,,0.00,0,weatherlink.com 1.10,2013-05-06 08:35:00,
2013-05-06 04:50:00,45.8,43.0,30.25,SE,140,0.0,0.0,91,0.00,,,0.00,0,weatherlink.com 1.10,2013-05-06 08:50:00,
2013-05-06 05:05:00,45.5,43.0,30.24,SE,140,0.0,0.0,91,0.00,,,0.00,0,weatherlink.com 1.10,2013-05-06 09:05:00,
2013-05-06 05:20:00,45.2,43.0,30.25,SE,140,0.0,0.0,92,0.00,,,0.00,0,weatherlink.com 1.10,2013-05-06 09:20:00,
2013-05-06 05:35:00,44.9,43.0,30.25,SE,140,0.0,0.0,92,0.00,,,0.00,0,weatherlink.com 1.10,2013-05-06 09:35:00,
2013-05-06 05:50:00,44.4,42.0,30.26,SE,140,0.0,0.0,92,0.00,,,0.00,0,weatherlink.com 1.10,2013-05-06 09:50:00,
2013-05-06 06:05:00,44.3,42.0,30.26,SE,140,0.0,0.0,93,0.00,,,0.00,9,weatherlink.com 1.10,2013-05-06 10:05:00,
2013-05-06 06:20:00,44.5,43.0,30.26,SE,140,2.0,6.0,93,0.00,,,0.00,18,weatherlink.com 1.10,2013-05-06 10:20:00,
2013-05-06 06:35:00,44.5,43.0,30.27,SE,140,4.0,4.0,93,0.00,,,0.00,25,weatherlink.com 1.10,2013-05-06 10:35:00,
2013-05-06 06:50:00,44.7,43.0,30.28,SE,140,0.0,6.0,93,0.00,,,0.00,26,weatherlink.com 1.10,2013-05-06 10:50:00,
2013-05-06 07:05:00,44.9,43.0,30.28,SE,140,3.0,7.0,94,0.00,,,0.00,35,weatherlink.com 1.10,2013-05-06 11:05:00,
2013-05-06 07:20:00,44.8,43.0,30.28,SE,140,0.0,5.0,93,0.00,,,0.00,49,weatherlink.com 1.10,2013-05-06 11:20:00,
2013-05-06 07:35:00,44.8,43.0,30.28,SE,140,0.0,0.0,93,0.00,,,0.00,56,weatherlink.com 1.10,2013-05-06 11:35:00,
2013-05-06 07:50:00,44.5,43.0,30.28,SE,140,3.0,6.0,93,0.00,,,0.00,95,weatherlink.com 1.10,2013-05-06 11:50:00,
2013-05-06 08:05:00,44.1,42.0,30.28,SE,140,2.0,6.0,93,0.00,,,0.00,118,weatherlink.com 1.10,2013-05-06 12:05:00,
2013-05-06 08:20:00,44.2,42.0,30.29,SE,140,5.0,8.0,93,0.00,,,0.00,139,weatherlink.com 1.10,2013-05-06 12:20:00,
2013-05-06 08:35:00,44.0,42.0,30.29,SE,140,0.0,4.0,93,0.00,,,0.00,162,weatherlink.com 1.10,2013-05-06 12:35:00,
2013-05-06 08:50:00,44.2,42.0,30.30,SE,140,0.0,7.0,93,0.00,,,0.00,158,weatherlink.com 1.10,2013-05-06 12:50:00,
2013-05-06 09:05:00,44.5,42.0,30.30,SE,140,3.0,8.0,92,0.00,,,0.00,158,weatherlink.com 1.10,2013-05-06 13:05:00,
2013-05-06 09:20:00,44.8,43.0,30.29,SE,140,4.0,5.0,92,0.00,,,0.00,149,weatherlink.com 1.10,2013-05-06 13:20:00,
2013-05-06 09:35:00,45.2,43.0,30.29,SE,140,2.0,5.0,92,0.00,,,0.00,176,weatherlink.com 1.10,2013-05-06 13:35:00,
2013-05-06 09:50:00,45.8,43.0,30.29,SE,140,0.0,0.0,91,0.00,,,0.00,223,weatherlink.com 1.10,2013-05-06 13:50:00,
2013-05-06 10:05:00,46.7,44.0,30.29,SE,140,1.0,2.0,90,0.00,,,0.00,243,weatherlink.com 1.10,2013-05-06 14:05:00,
2013-05-06 10:20:00,46.5,44.0,30.29,SE,140,0.0,4.0,90,0.00,,,0.00,255,weatherlink.com 1.10,2013-05-06 14:20:00,
2013-05-06 10:35:00,46.7,44.0,30.29,SE,140,1.0,4.0,90,0.00,,,0.00,269,weatherlink.com 1.10,2013-05-06 14:35:00,
2013-05-06 10:50:00,47.1,44.0,30.29,SE,140,2.0,4.0,90,0.00,,,0.00,278,weatherlink.com 1.10,2013-05-06 14:50:00,
2013-05-06 11:05:00,47.4,44.0,30.29,SE,140,0.0,0.0,89,0.00,,,0.00,371,weatherlink.com 1.10,2013-05-06 15:05:00,
2013-05-06 11:20:00,48.2,45.0,30.28,SE,140,2.0,6.0,88,0.00,,,0.00,522,weatherlink.com 1.10,2013-05-06 15:20:00,
2013-05-06 11:35:00,49.5,46.0,30.27,SE,140,4.0,6.0,86,0.00,,,0.00,993,weatherlink.com 1.10,2013-05-06 15:35:00,
2013-05-06 11:51:00,50.3,46.0,30.27,SE,140,3.0,6.0,84,0.00,,,0.00,911,weatherlink.com 1.10,2013-05-06 15:51:00,
2013-05-06 12:06:00,51.1,46.0,30.27,SE,140,2.0,6.0,83,0.00,,,0.00,918,weatherlink.com 1.10,2013-05-06 16:06:00,
2013-05-06 12:21:00,52.0,46.0,30.26,SE,140,4.0,7.0,81,0.00,,,0.00,925,weatherlink.com 1.10,2013-05-06 16:21:00,
2013-05-06 12:36:00,51.5,46.0,30.25,SE,140,6.0,7.0,82,0.00,,,0.00,919,weatherlink.com 1.10,2013-05-06 16:36:00,
2013-05-06 12:51:00,51.8,47.0,30.25,SE,139,7.0,8.0,83,0.00,,,0.00,837,weatherlink.com 1.10,2013-05-06 16:51:00,
2013-05-06 13:07:00,52.3,47.0,30.24,SE,126,6.0,10.0,82,0.00,,,0.00,237,weatherlink.com 1.10,2013-05-06 17:07:00,
2013-05-06 13:21:00,52.7,47.0,30.24,ESE,119,1.0,10.0,82,0.00,,,0.00,682,weatherlink.com 1.10,2013-05-06 17:21:00,
2013-05-06 13:36:00,52.6,47.0,30.23,ESE,114,3.0,12.0,82,0.00,,,0.00,889,weatherlink.com 1.10,2013-05-06 17:36:00,
2013-05-06 13:51:00,52.4,48.0,30.23,ESE,119,5.0,11.0,84,0.00,,,0.00,538,weatherlink.com 1.10,2013-05-06 17:51:00,
2013-05-06 14:06:00,52.6,48.0,30.23,ESE,115,2.0,14.0,84,0.00,,,0.00,144,weatherlink.com 1.10,2013-05-06 18:06:00,
2013-05-06 14:21:00,52.2,48.0,30.22,ESE,111,9.0,11.0,84,0.00,,,0.00,128,weatherlink.com 1.10,2013-05-06 18:21:00,
2013-05-06 14:36:00,52.4,48.0,30.22,ESE,118,8.0,14.0,86,0.00,,,0.00,290,weatherlink.com 1.10,2013-05-06 18:36:00,
2013-05-06 14:51:00,51.8,48.0,30.22,ESE,122,7.0,13.0,86,0.00,,,0.00,309,weatherlink.com 1.10,2013-05-06 18:51:00,
2013-05-06 15:06:00,51.2,48.0,30.21,ESE,119,9.0,13.0,88,0.00,,,0.00,295,weatherlink.com 1.10,2013-05-06 19:06:00,
2013-05-06 15:21:00,51.2,48.0,30.20,ESE,115,4.0,12.0,89,0.00,,,0.00,295,weatherlink.com 1.10,2013-05-06 19:21:00,
2013-05-06 15:36:00,51.0,48.0,30.20,East,96,7.0,14.0,88,0.00,,,0.00,258,weatherlink.com 1.10,2013-05-06 19:36:00,
2013-05-06 15:51:00,50.8,48.0,30.20,East,96,13.0,13.0,89,0.00,,,0.00,227,weatherlink.com 1.10,2013-05-06 19:51:00,
2013-05-06 16:06:00,50.7,48.0,30.19,East,94,11.0,13.0,89,0.00,,,0.00,199,weatherlink.com 1.10,2013-05-06 20:06:00,
2013-05-06 16:21:00,50.6,48.0,30.19,East,95,3.0,11.0,90,0.00,,,0.00,209,weatherlink.com 1.10,2013-05-06 20:21:00,
2013-05-06 16:36:00,50.4,48.0,30.18,East,90,9.0,13.0,90,0.00,,,0.00,206,weatherlink.com 1.10,2013-05-06 20:36:00,
2013-05-06 16:51:00,50.1,48.0,30.18,East,98,7.0,15.0,91,0.00,,,0.00,174,weatherlink.com 1.10,2013-05-06 20:51:00,
2013-05-06 17:06:00,49.9,47.0,30.18,East,101,8.0,14.0,91,0.00,,,0.00,151,weatherlink.com 1.10,2013-05-06 21:06:00,
2013-05-06 17:21:00,49.6,47.0,30.18,East,90,8.0,14.0,91,0.00,,,0.00,123,weatherlink.com 1.10,2013-05-06 21:21:00,
2013-05-06 17:36:00,49.5,47.0,30.17,East,87,3.0,14.0,92,0.00,,,0.00,98,weatherlink.com 1.10,2013-05-06 21:36:00,
2013-05-06 17:51:00,49.5,47.0,30.17,East,90,8.0,14.0,92,0.00,,,0.00,90,weatherlink.com 1.10,2013-05-06 21:51:00,
2013-05-06 18:06:00,49.5,48.0,30.16,East,84,9.0,14.0,93,0.00,,,0.00,53,weatherlink.com 1.10,2013-05-06 22:06:00,
2013-05-06 18:21:00,49.8,48.0,30.16,East,83,8.0,14.0,93,0.00,,,0.00,33,weatherlink.com 1.10,2013-05-06 22:21:00,
2013-05-06 18:36:00,50.1,48.0,30.16,East,86,6.0,11.0,93,0.00,,,0.00,23,weatherlink.com 1.10,2013-05-06 22:36:00,
2013-05-06 18:51:00,50.5,49.0,30.16,East,90,7.0,13.0,93,0.00,,,0.00,19,weatherlink.com 1.10,2013-05-06 22:51:00,
2013-05-06 19:06:00,50.9,49.0,30.16,East,92,9.0,11.0,93,0.00,,,0.00,16,weatherlink.com 1.10,2013-05-06 23:06:00,
2013-05-06 19:36:00,51.5,50.0,30.16,East,94,6.0,11.0,93,0.00,,,0.00,7,weatherlink.com 1.10,2013-05-06 23:36:00,
2013-05-06 19:51:00,51.7,50.0,30.16,East,94,5.0,8.0,93,0.00,,,0.00,0,weatherlink.com 1.10,2013-05-06 23:51:00,
2013-05-06 20:06:00,51.9,50.0,30.16,East,94,5.0,8.0,93,0.00,,,0.00,0,weatherlink.com 1.10,2013-05-07 00:06:00,
2013-05-06 20:21:00,52.2,50.0,30.16,East,94,6.0,7.0,93,0.00,,,0.00,0,weatherlink.com 1.10,2013-05-07 00:21:00,
2013-05-06 20:36:00,52.4,51.0,30.16,East,94,0.0,6.0,93,0.00,,,0.00,0,weatherlink.com 1.10,2013-05-07 00:36:00,
2013-05-06 20:51:00,52.5,51.0,30.17,East,94,0.0,0.0,93,0.00,,,0.00,0,weatherlink.com 1.10,2013-05-07 00:51:00,
2013-05-06 21:06:00,52.5,51.0,30.17,East,94,0.0,0.0,93,0.00,,,0.00,0,weatherlink.com 1.10,2013-05-07 01:06:00,
2013-05-06 21:21:00,52.0,50.0,30.18,East,94,0.0,0.0,92,0.00,,,0.00,0,weatherlink.com 1.10,2013-05-07 01:21:00,
2013-05-06 21:36:00,51.5,49.0,30.18,East,94,0.0,0.0,92,0.00,,,0.00,0,weatherlink.com 1.10,2013-05-07 01:36:00,
2013-05-06 21:51:00,51.2,49.0,30.18,East,94,0.0,0.0,92,0.00,,,0.00,0,weatherlink.com 1.10,2013-05-07 01:51:00,
2013-05-06 22:06:00,50.9,49.0,30.18,East,94,0.0,0.0,92,0.00,,,0.00,0,weatherlink.com 1.10,2013-05-07 02:06:00,
2013-05-06 22:21:00,50.7,49.0,30.18,East,94,0.0,0.0,93,0.00,,,0.00,0,weatherlink.com 1.10,2013-05-07 02:21:00,
2013-05-06 22:36:00,50.5,49.0,30.18,East,94,0.0,0.0,93,0.00,,,0.00,0,weatherlink.com 1.10,2013-05-07 02:36:00,
2013-05-06 22:51:00,50.4,49.0,30.18,East,94,0.0,0.0,93,0.00,,,0.00,0,weatherlink.com 1.10,2013-05-07 02:51:00,
2013-05-06 23:06:00,50.3,48.0,30.17,East,94,0.0,0.0,93,0.00,,,0.00,0,weatherlink.com 1.10,2013-05-07 03:06:00,
2013-05-06 23:21:00,50.3,48.0,30.17,East,94,1.0,6.0,93,0.00,,,0.00,0,weatherlink.com 1.10,2013-05-07 03:21:00,
2013-05-06 23:36:00,50.6,49.0,30.16,East,94,2.0,6.0,94,0.00,,,0.00,0,weatherlink.com 1.10,2013-05-07 03:36:00,
2013-05-06 23:51:00,50.9,49.0,30.16,East,94,2.0,7.0,94,0.00,,,0.00,0,weatherlink.com 1.10,2013-05-07 03:51:00,